Location: Dillon
(41.1766°N, 107.0923°W)
Time: 09:59:35
(UTC+00:00)

DELTA 2 DEB (DPAF) - Visible Passes

Search period start: 27 November 2022 00:00
Search period end: 07 December 2022 00:00
Orbit: 632 x 635 km, 98.4° (Epoch: 26 November)

Date Brightness Start Highest point End Pass type
(mag) Time Alt. Az. Time Alt. Az. Time Alt. Az.
27 Nov 4.3 00:12:57 10° NNE 00:17:16 51° E 00:21:33 10° S visible
27 Nov 6.9 01:50:31 10° NNW 01:53:10 16° WNW 01:55:49 10° W visible
27 Nov 6.5 11:09:10 10° SE 11:10:16 17° SE 11:10:16 17° SE visible
27 Nov 6.2 12:47:08 10° SW 12:47:43 12° SW 12:47:43 12° SW visible
28 Nov 4.1 00:34:18 10° NNE 00:38:44 88° E 00:43:09 10° SSW visible
28 Nov 6.0 11:30:21 10° SSE 11:31:54 22° SSE 11:31:54 22° SSE visible
29 Nov 4.8 00:55:50 10° N 01:00:09 54° WNW 01:04:26 10° SSW visible
29 Nov 5.8 11:51:50 10° S 11:53:31 23° S 11:53:31 23° S visible
30 Nov 5.8 01:17:32 10° N 01:21:29 32° WNW 01:25:23 10° SW visible
30 Nov 5.8 12:13:38 10° SSW 12:15:07 19° SSW 12:15:07 19° SSW visible
01 Dec 6.6 01:39:30 10° NNW 01:42:44 20° WNW 01:45:58 10° WSW visible
01 Dec 6.9 10:58:53 10° SE 10:59:17 12° SE 10:59:17 12° SE visible
01 Dec 6.1 12:35:52 10° SW 12:36:44 14° SW 12:36:44 14° SW visible
02 Dec 4.1 00:23:46 10° NNE 00:28:10 66° ESE 00:32:31 10° S visible
02 Dec 7.0 02:01:59 10° NW 02:03:55 13° WNW 02:05:52 10° W visible
02 Dec 6.5 11:19:52 10° SSE 11:20:54 17° SSE 11:20:54 17° SSE visible
03 Dec 4.3 00:45:10 10° N 00:49:35 73° WNW 00:53:57 10° SSW visible
03 Dec 6.1 11:41:09 10° SSE 11:42:30 20° S 11:42:30 20° S visible
04 Dec 5.3 01:06:44 10° N 01:10:55 43° WNW 01:15:04 10° SW visible
04 Dec 6.0 12:02:45 10° S 12:04:05 19° SSW 12:04:05 19° SSW visible
05 Dec 6.2 01:28:31 10° N 01:32:11 26° WNW 01:35:49 10° WSW visible
05 Dec 6.1 12:24:42 10° SSW 12:25:41 15° SSW 12:25:41 15° SSW visible
06 Dec 4.4 00:13:10 10° NNE 00:17:28 48° E 00:21:42 10° S visible
06 Dec 6.8 01:50:37 10° NNW 01:53:23 17° WNW 01:56:08 10° WSW visible
06 Dec 6.9 11:09:23 10° SE 11:09:50 13° SE 11:09:50 13° SE visible
06 Dec 6.4 12:47:09 10° SW 12:47:16 10° SW 12:47:16 10° SW visible
